Helicity
90 89 88 86 78 70 70 65 58 58 64 76 85 86 84 93 106 22 34 53 50 76 45 52 38 49 27 44 52 45 34 40 64 62 100 72 78 64 55 48 59 62 79 96 45
95 92 91 92 90 84 74 72 69 64 64 69 84 96 88 75 51 27 55 55 60 78 70 84 81 79 49 51 51 44 46 66 76 78 76 59 59 61 59 69 79 76 63 58 55
99 97 97 93 93 91 82 73 68 67 66 70 77 94 102 61 44 38 78 75 86 60 65 67 64 69 53 54 56 53 62 58 54 82 72 63 45 45 57 57 85 88 89 66 65
108 106 105 107 97 95 90 84 76 67 66 78 90 98 109 44 104 66 93 94 82 52 50 68 72 58 53 47 62 42 50 53 61 51 48 40 47 33 42 44 90 80 60 46 39
129 120 114 110 112 104 102 91 82 73 66 73 89 105 60 57 65 58 56 46 38 34 81 81 88 81 68 64 55 45 53 46 41 36 25 23 21 32 16 74 70 81 68 63 46
146 138 128 127 123 120 119 108 93 76 72 79 97 104 53 60 69 61 73 56 74 66 81 84 97 102 96 89 88 83 60 43 44 36 35 41 62 53 97 104 90 104 119 116 82
149 151 148 149 144 137 133 128 113 88 78 84 110 93 61 62 68 59 84 81 101 124 101 84 76 75 65 66 75 73 73 52 36 58 74 77 29 46 183 125 111 122 137 130 123
150 154 162 157 164 161 157 160 142 118 107 106 100 78 67 62 77 53 61 65 73 61 63 60 80 82 66 67 44 57 49 67 118 51 99 71 100 111 148 134 122 139 125 130 138
168 168 169 180 188 188 201 195 181 163 162 141 98 97 55 63 86 78 51 76 75 72 77 64 62 90 59 53 52 40 85 75 100 93 127 101 162 144 108 120 104 107 99 98 110
196 179 189 192 207 235 272 254 256 202 195 173 150 116 106 103 119 141 99 87 138 103 122 90 86 82 72 73 88 113 78 100 119 162 107 112 93 67 78 99 100 80 72 65 82
104 213 199 245 243 309 419 479 343 289 218 247 132 232 165 154 155 103 145 164 152 128 135 86 118 99 33 40 129 164 151 123 135 125 116 66 72 53 71 74 103 90 83 70 70
51 92 188 237 293 322 325 382 255 299 192 108 190 135 169 210 167 144 112 165 166 159 170 165 102 62 146 134 144 164 150 113 104 132 86 72 62 62 106 119 135 105 61 60 59
136 74 184 213 323 351 319 209 238 293 273 142 71 168 221 155 197 135 117 181 160 158 97 120 167 91 96 148 151 122 112 97 127 106 38 63 32 83 113 136 113 59 46 59 68
169 133 114 295 399 444 386 239 277 286 342 156 205 151 166 239 213 159 103 165 185 118 126 119 172 195 138 126 102 123 78 82 99 118 118 132 130 105 100 99 83 60 54 62 60
127 153 79 310 287 498 513 374 313 328 531 145 237 211 208 265 232 162 157 207 154 201 207 194 121 76 127 127 99 155 87 76 86 97 118 84 112 113 105 77 96 111 79 64 63
174 174 148 169 293 391 676 662 719 637 557 361 285 314 326 258 308 268 243 281 215 198 229 218 268 200 159 138 76 147 139 148 143 133 158 88 110 112 114 69 139 127 90 67 67
159 190 198 272 317 589 800 754 525 419 320 348 473 384 283 369 333 404 343 330 382 396 261 236 211 199 183 172 128 133 167 183 175 202 175 256 117 88 201 127 110 130 99 67 65
110 189 153 325 255 520 776 712 362 152 217 126 170 130 262 289 247 261 349 308 253 281 227 201 191 136 145 165 198 152 132 188 224 187 168 206 196 186 197 203 217 125 72 91 91
125 206 211 223 240 629 749 488 393 239 126 223 158 234 284 193 254 257 190 164 157 231 253 165 158 126 129 61 111 108 150 81 216 225 250 156 99 162 166 184 187 123 86 103 96
186 217 215 199 264 511 561 486 257 247 54 211 234 194 244 220 250 164 152 116 97 66 75 152 176 96 54 51 69 127 86 255 213 286 219 175 123 178 186 157 138 129 92 106 112
151 158 215 255 261 475 333 397 445 343 235 217 189 195 168 178 152 109 96 128 65 58 61 131 149 131 142 126 94 186 163 180 166 181 199 170 161 159 113 83 123 89 81 118 115
83 332 85 440 375 401 457 526 442 264 289 303 263 234 162 150 152 127 114 63 28 72 68 88 111 144 52 137 33 48 61 101 215 174 121 127 64 150 116 66 44 61 100 116 120
40 215 128 313 474 513 447 414 357 451 378 340 320 343 219 252 237 148 66 69 40 55 81 59 126 187 169 102 99 98 61 64 65 162 141 187 208 238 193 130 79 98 140 127 144
48 229 184 291 295 541 569 301 434 209 301 377 283 358 329 206 84 79 118 123 44 22 63 40 110 107 127 97 113 122 125 103 96 169 153 168 110 201 169 121 133 147 149 176 232
118 129 280 92 329 325 490 310 440 622 405 414 442 341 429 336 233 240 170 275 181 139 134 134 153 105 88 177 184 96 58 51 93 125 164 123 93 74 84 122 158 115 149 214 227
100 125 129 329 36 219 487 241 351 504 593 317 308 176 142 204 186 190 303 261 256 246 154 157 167 186 138 138 159 157 115 124 99 66 89 68 83 64 118 203 134 219 237 236 166
59 182 290 -68 305 278 259 492 315 310 326 326 175 119 155 115 189 263 212 194 219 214 144 231 252 281 200 204 231 242 137 158 114 90 90 123 136 87 177 172 202 224 248 195 151
Wind_Speed
63 60 58 55 52 51 48 46 45 45 46 48 50 51 52 54 53 42 36 35 36 42 40 40 35 34 29 29 29 30 29 27 28 25 25 30 31 31 34 30 41 33 34 37 34
65 62 59 57 55 52 50 47 46 46 47 48 50 52 53 54 49 41 33 34 38 40 37 36 35 34 29 30 31 31 31 30 30 30 29 34 36 44 38 40 35 38 32 35 32
67 64 61 59 55 52 50 48 46 46 48 49 50 53 54 51 48 34 31 35 38 39 39 38 37 33 30 30 32 32 36 30 30 31 37 41 46 38 45 40 41 48 47 41 35
69 66 63 59 57 53 50 48 47 47 47 49 50 52 53 43 46 31 32 36 38 40 38 37 36 33 32 32 33 36 36 36 37 36 42 48 48 45 42 42 46 42 42 43 34
72 68 65 61 58 56 51 48 47 46 46 47 49 51 46 46 47 35 37 40 40 38 35 34 35 35 35 33 35 38 38 40 41 47 51 48 48 48 43 36 41 43 45 50 46
75 71 66 62 59 56 53 49 46 45 46 47 48 50 46 55 37 35 39 36 33 31 31 32 31 32 33 36 39 40 44 47 49 48 46 47 45 41 35 38 43 44 49 52 54
75 73 69 65 61 57 53 49 46 45 44 45 46 46 54 57 38 34 38 34 31 31 33 32 32 35 30 36 37 43 52 51 47 45 45 43 47 41 35 44 44 48 52 53 53
77 72 70 68 63 58 53 50 46 44 45 45 45 47 63 46 45 50 41 44 41 40 41 32 33 31 35 36 41 48 49 55 39 40 40 40 58 33 44 50 55 56 55 54 53
85 76 71 68 63 57 52 46 43 43 45 44 49 53 66 44 50 49 39 42 39 36 34 32 35 38 36 45 49 44 60 54 55 44 49 50 62 49 56 57 59 59 55 52 48
80 82 76 69 62 56 47 40 38 39 44 45 49 58 59 47 41 36 33 26 34 24 30 33 39 42 41 43 67 63 57 55 61 50 55 65 69 63 57 51 53 49 47 47 46
78 81 80 75 66 55 46 42 53 64 61 62 54 59 49 40 37 32 24 26 22 28 43 35 45 47 49 47 60 59 63 68 60 56 64 65 61 56 49 48 43 43 44 44 44
75 65 70 76 68 65 59 72 68 55 73 79 69 63 53 46 48 40 27 34 36 44 34 41 56 51 51 50 54 58 63 67 65 54 51 59 59 53 48 39 37 39 40 41 42
77 73 75 59 65 74 80 73 47 47 69 66 77 78 60 49 59 50 37 42 44 45 43 53 54 42 46 49 54 55 57 56 54 51 55 60 66 43 34 29 31 32 32 34 38
94 87 70 53 60 68 79 63 47 48 79 79 73 71 64 56 73 45 42 40 48 53 50 61 50 49 49 54 47 59 46 46 49 50 52 44 54 42 29 30 28 25 27 30 35
104 100 74 52 52 71 59 45 39 46 107 69 65 48 55 63 49 56 44 50 56 49 46 58 51 49 54 49 36 49 38 36 40 48 57 50 54 46 35 29 22 20 22 27 31
98 97 83 72 55 55 42 37 40 64 98 69 55 65 62 66 63 44 50 54 57 56 59 63 49 45 45 37 29 31 31 35 41 46 60 48 45 48 32 29 18 16 19 25 27
99 97 94 75 73 51 48 43 66 89 56 68 68 57 62 65 65 64 62 63 61 64 69 61 59 47 37 35 30 29 33 49 54 50 57 42 42 41 32 25 13 11 15 19 21
96 92 89 93 51 60 59 62 80 75 65 44 47 42 64 58 68 64 64 71 67 62 58 60 61 48 41 47 48 45 39 45 59 57 53 39 48 42 31 21 13 12 12 14 17
89 95 92 91 71 67 73 99 89 64 61 47 37 49 55 49 49 56 63 67 62 54 55 54 57 41 41 39 40 40 48 40 53 50 54 49 44 43 27 20 15 13 11 12 15
92 95 108 85 81 81 91 103 95 76 54 48 50 50 62 56 49 51 52 55 55 57 50 47 48 39 35 37 38 40 29 39 41 56 61 54 51 51 28 24 18 17 14 13 17
99 94 87 83 87 110 121 99 88 82 70 68 65 53 51 49 53 48 46 41 46 42 44 36 43 38 28 38 38 35 33 37 38 45 53 62 52 39 31 25 21 18 14 16 20
102 115 76 84 115 117 115 83 81 79 72 73 66 56 51 52 53 50 51 43 31 33 43 36 40 47 40 36 40 37 37 35 42 45 50 58 62 37 28 19 18 19 20 22 26
109 109 82 90 133 119 98 101 88 81 79 72 71 66 54 50 53 59 47 34 25 32 29 32 39 42 45 43 39 43 41 41 44 46 52 53 57 35 35 29 23 23 26 31 32
100 108 100 96 117 110 109 107 103 87 85 71 72 64 59 57 53 54 47 37 32 34 30 29 43 48 55 53 42 45 45 46 47 58 57 64 60 46 45 40 27 29 36 33 31
98 96 87 121 112 116 102 101 108 101 84 72 68 73 72 71 72 60 47 42 45 40 37 37 59 56 62 54 48 47 45 43 52 58 61 64 60 60 49 39 38 38 36 34 33
88 94 100 108 107 113 108 122 103 94 91 96 79 66 68 77 80 76 61 52 57 54 49 53 66 60 68 62 62 67 61 56 56 59 62 66 70 57 58 44 44 41 39 39 39
94 79 74 106 104 113 124 109 116 97 92 96 92 78 88 82 59 60 60 60 53 56 61 61 65 68 85 65 68 86 78 64 66 63 60 73 71 63 63 54 50 46 44 42 39
Wind_Direction
250 251 252 254 258 262 267 273 278 283 285 286 288 290 292 292 290 296 294 298 298 294 296 299 305 306 310 314 315 313 312 313 319 323 331 336 333 345 342 345 337 346 345 345 354
249 250 251 253 256 260 264 270 275 278 282 286 288 289 291 293 292 294 299 297 295 297 302 306 306 306 308 310 312 308 308 313 318 321 324 325 326 323 332 332 336 337 344 341 343
247 248 249 251 254 257 262 267 271 275 280 283 286 288 289 293 292 295 298 294 295 297 300 299 301 306 306 309 308 310 305 316 318 320 317 317 316 326 324 327 331 327 328 332 334
246 246 247 248 251 254 258 263 268 272 276 281 285 287 287 292 281 297 297 295 296 298 301 300 299 300 302 303 306 304 307 308 310 314 313 312 317 319 322 324 331 335 336 335 334
244 245 246 247 248 251 255 259 265 270 275 279 283 285 287 281 280 292 293 294 297 299 301 300 298 298 298 304 305 302 306 307 307 307 306 311 313 316 319 331 335 336 336 333 333
242 243 244 245 246 249 252 256 261 267 272 278 282 283 280 275 291 290 289 292 296 297 302 303 304 306 304 303 302 307 304 304 306 307 310 312 316 322 327 331 331 334 334 335 334
241 241 241 242 244 246 249 253 258 264 270 276 281 283 276 271 287 288 285 288 290 294 297 302 305 302 311 306 310 307 303 306 306 309 312 317 311 314 324 327 327 330 331 333 337
239 239 239 240 241 242 245 249 254 261 267 273 279 280 272 280 281 276 279 279 281 287 292 299 304 307 304 310 308 304 306 302 311 314 317 318 306 320 326 321 318 322 325 329 333
239 237 238 237 238 239 241 245 251 258 266 271 274 273 271 281 274 275 274 276 279 284 289 294 294 296 302 299 301 304 297 300 306 313 311 307 305 314 317 315 315 318 324 329 333
239 237 236 234 233 233 233 237 249 258 263 270 273 271 268 272 275 276 276 270 280 277 282 283 288 289 292 293 290 296 297 301 300 310 307 303 302 307 313 318 320 324 329 332 335
248 238 234 232 228 223 215 230 247 256 251 255 266 263 276 273 276 276 272 269 273 269 273 273 280 281 287 289 295 299 296 294 302 306 305 302 304 309 315 318 325 330 332 336 340
249 246 235 227 223 216 219 238 241 263 258 253 260 261 267 272 263 262 255 262 262 267 271 281 279 284 291 293 293 295 294 294 299 304 305 304 305 310 313 321 327 331 336 338 344
244 244 238 220 216 218 228 235 247 258 261 261 251 255 260 263 262 250 244 262 264 266 263 276 291 287 285 291 291 291 291 295 297 305 302 304 303 308 318 328 333 339 347 353 353
240 238 243 226 214 217 229 232 245 257 258 256 253 259 252 256 262 257 243 259 268 266 272 278 283 283 283 286 289 289 295 293 297 301 301 310 304 311 316 319 328 340 350 356 353
236 235 238 215 229 217 221 222 240 250 252 257 250 257 249 239 259 251 241 259 262 266 273 279 280 278 279 285 283 292 300 295 296 296 298 298 302 305 311 311 320 334 349 354 356
239 235 233 229 238 217 200 211 233 243 248 252 252 245 240 243 250 256 246 258 264 267 272 274 286 281 285 287 278 296 297 300 300 299 292 292 294 304 304 307 314 332 345 350 359
238 234 231 231 235 197 190 206 236 242 251 253 249 244 243 244 241 248 243 240 250 258 261 268 270 278 275 278 275 275 282 291 290 288 292 304 294 287 312 318 316 326 341 353 9
237 235 233 230 221 197 198 217 241 242 238 253 245 243 247 243 244 246 246 244 242 257 267 259 268 253 261 261 274 260 261 283 289 287 295 301 296 301 302 306 312 322 336 354 359
236 235 234 229 212 200 209 233 237 238 229 239 234 239 248 240 249 242 244 244 240 236 252 261 266 274 276 264 260 266 252 270 292 297 295 295 298 305 302 293 288 289 309 324 337
231 235 231 224 213 212 224 235 239 239 228 224 244 247 245 238 244 236 237 249 242 231 242 266 273 277 259 261 264 272 270 268 270 286 287 295 293 296 293 279 268 272 276 296 317
227 234 232 217 216 225 233 238 241 234 228 233 242 247 245 236 239 232 242 259 232 230 228 256 266 279 265 262 256 265 257 271 273 276 289 294 297 305 283 265 256 256 258 281 301
224 230 228 207 220 228 229 233 234 229 232 239 239 244 239 234 234 234 244 252 237 217 220 240 269 268 269 286 273 253 261 252 274 284 276 287 289 310 305 280 263 266 270 282 291
223 232 231 215 222 227 230 232 233 227 226 235 239 238 237 234 238 238 242 246 230 214 222 224 264 267 277 281 277 268 258 260 264 286 276 280 292 302 298 289 275 271 282 286 289
221 228 225 227 225 224 225 230 228 225 229 236 238 237 230 232 236 240 242 248 235 231 243 225 268 265 271 284 279 267 267 259 263 269 274 269 284 286 291 289 279 275 287 287 289
222 229 229 223 225 223 220 225 225 227 230 229 240 233 230 235 233 243 239 246 247 244 247 249 270 268 273 280 282 281 277 267 259 262 269 276 277 282 287 283 280 278 280 280 284
221 229 226 230 224 221 221 226 223 224 221 226 231 225 225 237 239 244 245 248 248 255 251 261 271 274 273 272 277 279 280 277 268 269 270 276 279 286 296 285 282 278 275 274 277
224 228 235 231 226 228 225 224 226 224 230 228 231 234 239 244 256 261 254 255 260 254 256 262 267 273 272 275 278 275 270 273 275 271 273 275 276 288 289 283 279 277 271 271 276